Regional Weather Roundup
Issued by NWS

Home | Current Version | Previous Version | Graphics & Text | Print | Product List | Glossary Off
Versions: 1 2 3 4 5 6 7 8 9 10 11 12 13 14 15 16 17 18 19 20 21 22 23 24 25 26 27 28 29 30 31 32 33 34 35 36 37 38 39 40 41 42 43 44 45 46 47 48 49 50

000
ASUS43 KBIS 110010
RWRND

NORTH DAKOTA REGIONAL WEATHER ROUNDUP
NATIONAL WEATHER SERVICE BISMARCK ND
600 PM CST SAT DEC 10 2016

NOTE: "FAIR" INDICATES FEW OR NO CLOUDS BELOW 12,000 FEET WITH NO
SIGNIFICANT WEATHER AND/OR OBSTRUCTIONS TO VISIBILITY.


NDZ001>003-009>011-017-110100-
NORTHWEST NORTH DAKOTA

CITY           SKY/WX    TMP DP  RH WIND       PRES   REMARKS
WILLISTON      FLURRIES   3  -5  69 SE10      29.96F WCI -12
6HR MIN TEMP:  -1; 6HR MAX TEMP:   3; 6HR PCP:  0.03;

MINOT          CLOUDY    -6 -11  79 E14       30.08F WCI -26
MINOT AFB      CLOUDY    -8 -12  79 E13       30.09F WCI -28
$$

NDZ018>021-031>035-040>046-110100-
SOUTHWEST NORTH DAKOTA

CITY           SKY/WX    TMP DP  RH WIND       PRES   REMARKS
BISMARCK       CLOUDY    -3  -7  82 E10       30.05F WCI -20
6HR MIN TEMP: -11; 6HR MAX TEMP:  -3; 6HR PCP: TRACE;

DICKINSON      CLOUDY    -5  -9  83 E17       29.87R WCI -27
GARRISON         N/A     -3  -9  75 E13       30.03F WCI -22
6HR MIN TEMP:  -8; 6HR MAX TEMP:  -3;

HETTINGER ARPT CLOUDY    -2  -6  83 SE14      29.87R WCI -21
$$

NDZ004>008-012>016-024-026-027-054-110100-
NORTHEAST NORTH DAKOTA

CITY           SKY/WX    TMP DP  RH WIND       PRES   REMARKS
GRAND FORKS    CLOUDY    -4  -9  79 E6        30.28F WCI -16
GRND FRKS AFB  CLOUDY    -4  -9  77 SE6       30.27F WCI -16
DEVILS LAKE    CLOUDY    -4  -8  83 E12       30.17F WCI -22
$$

NDZ022-023-025-028>030-036>039-047>053-110100-
SOUTHEAST NORTH DAKOTA

CITY           SKY/WX    TMP DP  RH WIND       PRES   REMARKS
FARGO          CLOUDY     2  -6  69 E9        30.23F WCI -13
6HR MIN TEMP:  -1; 6HR MAX TEMP:   2;

JAMESTOWN      FLURRIES  -2  -7  79 E14       30.13F WCI -21
$$





USA.gov is the U.S. government's official web portal to all federal, state and local government web resources and services.